Tracking 17855 objects as of 26-September-2016
HD Live streaming from Space Station
objects crossing your sky now

SL-19 R/B

Track SL-19 R/B now!
10-day predictions


NORAD ID: 36589
Int'l Code: 2010-023B
Perigee: 881.4 km
Apogee: 1,216.2 km
Inclination: 100.6 °
Period: 106.0 minutes
Semi major axis: 7419 km
RCS: 6.505 m2 (large)
Launch date: June 2, 2010
Source: Commonwealth of Independent States (former USSR) (CIS)
Launch site: PLESETSK MISSILE AND SPACE COMPLEX (PKMTR)

Note: This is a ROCKET BODY
Your satellite tracking list
Your tracking list is empty





NASA's NSSDC Master Catalog

Two Line Element Set (TLE):
1 36589U 10023B   16268.91253652 -.00000044 +00000-0 +87237-5 0  9994
2 36589 100.5546 289.8615 0225574 011.6177 048.9991 13.58360971313337
Source of the keplerian elements: AFSPC

N2YO: 493